Wind_Speed
10 9 8 7 7 5 3 2 2 2 3 4 4 5 6 6 9 4 9 3 9 21 17 14 8 6 5 4 4 4 3 9 9 9 10 12 9 4 5 12 6 3 6 20 22
11 10 8 7 6 5 4 3 2 2 3 5 5 4 6 8 7 13 7 8 11 23 19 13 7 5 3 2 2 5 3 9 6 7 12 11 7 8 7 12 10 9 15 23 22
12 10 9 7 6 5 4 3 2 2 3 4 5 4 6 7 7 4 8 10 16 21 11 6 4 5 3 2 1 3 9 5 8 6 11 11 9 7 7 8 8 12 19 21 22
13 11 9 7 6 5 4 3 1 2 3 4 3 4 7 2 2 4 11 14 18 13 11 6 1 3 1 5 4 4 5 3 8 10 8 11 11 7 5 9 8 13 20 21 18
16 13 10 8 7 5 4 4 2 2 3 3 2 3 1 6 5 2 14 17 17 12 9 4 3 5 7 7 2 4 6 5 7 10 7 9 9 7 8 5 8 13 19 19 16
18 15 11 9 7 6 5 4 2 2 2 2 2 3 4 4 3 11 16 21 13 12 6 4 5 8 5 6 4 6 2 8 9 9 6 7 8 4 8 7 11 14 18 17 16
19 16 12 9 7 6 5 5 3 2 3 2 1 1 6 4 3 14 17 16 12 10 3 4 7 8 11 4 7 1 8 10 9 9 8 5 7 8 10 11 13 14 15 15 15
20 19 14 9 7 6 5 4 2 3 3 2 1 2 3 1 5 15 15 11 10 11 7 8 8 9 4 7 4 4 5 7 6 7 6 8 9 11 13 14 14 14 14 14 15
21 20 17 10 6 5 4 1 1 1 1 1 2 5 3 4 8 15 13 8 10 9 7 7 8 6 4 6 8 7 3 4 6 6 5 12 1 2 12 14 13 15 15 15 15
22 21 18 12 7 4 1 2 2 0 1 2 4 5 7 3 8 12 11 7 8 9 7 7 4 8 8 5 2 5 1 4 4 7 8 9 10 6 10 14 14 14 15 15 15
22 23 18 13 7 2 3 1 5 5 7 5 3 2 7 8 10 12 13 10 8 9 9 6 7 1 9 7 8 9 8 8 2 1 8 15 12 8 12 14 14 15 16 16 16
24 23 19 12 5 3 5 5 3 5 5 11 8 6 4 2 6 10 15 11 10 12 8 8 9 6 9 5 10 8 8 2 2 1 6 5 10 12 12 16 15 15 16 17 15
25 24 20 11 4 3 6 4 3 6 6 8 8 10 9 11 9 15 17 16 12 14 11 12 2 3 9 9 9 2 6 2 6 1 7 11 11 9 12 14 14 14 16 17 16
27 24 20 7 1 2 5 6 3 3 5 11 9 7 9 7 9 10 21 10 8 13 13 10 6 7 5 9 7 4 8 5 2 8 4 3 5 4 6 13 15 17 16 17 17
28 25 19 4 5 5 2 2 3 5 5 7 7 4 8 14 9 10 18 11 14 10 8 7 7 6 8 6 4 7 8 3 10 10 9 9 5 6 4 8 13 16 18 17 17
28 25 17 3 6 6 2 2 5 6 5 7 8 12 14 14 7 8 12 10 5 8 11 13 1 7 8 2 8 1 3 4 8 10 7 4 6 11 5 4 2 16 17 17 17
28 20 10 6 1 2 3 6 6 7 3 7 9 12 18 12 13 9 15 16 12 11 14 15 15 14 9 12 7 9 12 8 5 6 3 4 7 8 9 7 3 11 18 16 16
26 10 5 10 4 3 7 7 8 2 5 4 3 9 14 13 15 13 9 15 17 12 9 9 15 15 11 15 17 13 11 9 4 4 5 3 2 6 7 7 6 12 15 14 14
12 1 3 2 10 5 8 11 4 3 1 3 6 10 12 10 7 14 15 13 15 16 14 6 14 4 3 7 9 9 10 11 11 7 8 2 9 8 10 10 10 13 14 12 12
6 4 4 2 11 8 9 14 3 2 3 4 9 10 13 15 14 14 12 9 13 13 16 9 10 5 6 5 5 10 4 8 10 5 7 6 2 9 7 6 8 10 9 6 4
3 4 5 5 11 7 11 11 7 3 5 3 2 6 8 9 16 14 11 6 6 9 13 14 10 8 3 8 3 6 12 9 6 5 3 5 8 5 5 4 7 7 6 5 3
5 4 7 7 8 9 12 10 1 6 4 4 5 6 6 9 14 14 11 3 4 7 8 17 9 10 13 3 5 9 9 13 8 11 5 8 6 5 6 6 5 8 8 8 8
3 2 6 4 7 9 8 10 9 7 7 4 4 2 2 4 6 12 11 6 4 9 6 9 10 9 10 9 6 9 10 9 3 4 5 8 6 6 8 8 8 9 10 10 11
3 4 4 5 3 8 13 14 14 6 11 9 9 7 8 8 7 6 9 7 3 6 4 3 14 11 10 8 5 14 10 11 12 7 7 10 13 8 8 10 11 12 12 12 12
1 2 5 6 9 6 5 2 12 8 6 5 8 14 13 12 9 9 8 7 6 6 6 7 10 7 14 9 8 13 12 13 13 13 7 5 7 9 10 12 13 13 14 14 15
4 4 1 1 3 9 6 9 8 5 6 7 10 5 13 14 12 11 12 9 8 8 7 7 6 6 10 5 10 14 15 14 15 5 6 5 9 10 12 14 14 14 14 15 15
6 2 4 4 4 6 8 8 6 2 5 6 7 7 9 7 4 5 4 2 2 5 8 6 7 8 14 3 6 10 13 13 12 5 8 11 8 16 15 14 14 14 14 14 14
Wind_Direction
4 1 2 358 1 3 351 336 312 278 275 283 288 296 294 295 297 270 242 226 178 159 154 158 175 189 218 258 255 251 209 108 120 152 131 147 139 123 103 135 127 66 154 128 145
1 356 357 354 353 360 354 337 313 287 269 272 281 291 294 302 278 257 239 197 175 161 168 175 188 194 248 256 225 270 79 82 106 105 147 162 149 139 158 145 142 110 109 136 149
2 353 349 352 347 348 345 339 313 292 278 278 285 293 299 313 264 71 207 172 158 158 173 188 203 256 278 252 75 27 39 64 124 124 137 154 157 157 149 172 148 150 149 153 159
3 354 345 346 340 336 332 333 273 270 266 276 289 305 306 280 39 45 155 155 148 160 173 184 242 261 309 30 57 303 75 62 107 145 147 158 141 167 168 63 135 146 159 161 170
6 356 346 341 334 331 322 317 264 249 268 279 293 316 308 221 73 137 147 156 158 176 193 205 289 335 23 2 346 318 43 96 123 141 144 147 153 124 175 104 136 147 164 171 177
5 359 347 339 331 326 313 309 269 230 252 259 296 319 258 230 65 157 152 160 176 182 197 230 342 348 300 332 350 353 340 115 135 136 146 181 149 192 159 152 145 161 174 179 182
4 0 350 337 327 324 313 303 265 202 230 239 267 295 253 21 97 159 162 174 185 198 190 279 308 312 334 317 355 334 138 138 144 157 148 210 188 207 144 170 162 173 178 184 187
3 357 353 339 324 319 308 296 253 206 196 231 266 255 307 35 157 163 173 180 201 215 271 298 302 293 269 318 238 214 229 181 144 182 145 216 126 177 163 181 179 179 178 187 190
359 355 350 341 322 314 308 274 230 210 155 163 249 259 144 123 174 180 180 185 184 207 243 282 286 302 258 246 212 192 130 124 161 215 170 219 98 150 176 195 188 186 183 187 191
354 353 347 340 327 325 303 164 163 171 244 197 252 233 172 158 155 174 186 191 189 196 224 238 240 262 214 222 352 355 351 173 234 177 210 225 252 183 198 201 203 196 187 189 193
354 351 344 337 329 311 149 206 209 187 217 272 104 342 128 116 143 180 177 185 174 207 228 205 263 268 10 354 326 296 278 283 288 124 279 267 248 240 196 213 201 195 190 193 198
351 348 343 333 312 237 182 250 24 359 243 221 242 260 210 190 168 168 182 202 204 226 205 214 228 276 334 313 308 291 278 79 273 241 248 260 260 250 206 209 209 195 193 198 193
348 345 344 333 307 187 228 225 196 326 253 167 208 228 203 200 217 177 189 211 218 228 219 262 161 223 308 308 320 170 314 76 35 171 214 290 247 190 215 207 204 198 190 193 192
347 342 341 350 100 208 218 193 248 253 263 156 200 199 184 224 218 165 202 205 217 241 225 256 259 261 270 291 303 103 357 304 277 317 359 350 325 256 165 195 202 201 192 192 189
343 338 333 314 300 229 91 178 239 221 256 134 147 120 159 199 124 177 193 211 239 203 222 216 210 203 245 309 299 13 336 345 28 288 307 183 273 117 156 194 200 206 189 192 186
338 332 325 322 227 239 208 281 194 230 236 149 142 174 173 201 183 136 182 223 279 239 228 270 169 266 279 310 284 133 264 182 188 250 234 97 268 91 61 50 72 186 189 181 184
334 321 285 210 60 199 214 195 219 245 122 161 177 178 192 182 189 194 189 201 215 219 231 231 232 233 245 252 218 238 254 255 223 206 28 106 269 43 3 343 231 184 177 174 179
332 315 274 203 240 203 195 213 242 301 209 118 185 188 203 195 210 197 202 216 219 256 274 230 232 214 203 253 270 232 269 287 274 270 23 149 291 65 29 50 120 160 166 165 175
342 310 214 232 201 204 214 214 223 220 46 211 177 203 196 198 247 202 220 227 217 212 240 222 238 275 259 256 256 218 238 273 285 225 258 99 106 113 67 59 81 131 152 159 170
331 230 124 224 178 207 218 232 227 274 321 233 233 210 201 193 199 197 188 215 224 217 229 250 264 241 131 199 213 259 349 216 219 273 265 130 174 91 36 44 92 106 117 118 137
244 220 14 161 161 209 216 219 228 213 273 282 233 221 251 190 202 196 197 164 211 199 232 236 238 144 203 203 270 177 226 234 301 289 290 244 100 46 36 48 96 87 74 70 78
286 208 143 151 193 210 223 217 4 222 200 264 280 280 246 206 210 215 209 228 148 189 200 215 231 234 239 76 273 276 283 208 227 188 244 306 89 62 65 84 85 79 76 68 68
304 91 179 231 213 209 210 237 241 227 228 254 268 261 316 234 222 225 227 103 209 209 221 180 224 221 215 174 184 231 206 247 272 288 190 277 100 96 101 94 88 97 91 89 90
273 182 154 214 292 274 211 229 225 212 257 262 271 272 253 232 210 200 195 173 169 222 30 260 250 240 252 257 214 197 211 224 237 229 190 230 125 124 117 116 111 103 98 92 87
300 66 354 188 204 225 219 259 224 226 221 227 237 243 246 246 217 219 198 161 184 148 195 233 251 254 266 288 285 261 250 207 230 261 256 93 132 139 140 130 118 113 108 100 94
335 326 206 183 207 220 168 199 229 212 236 217 242 270 249 243 258 242 205 204 196 178 203 214 253 264 271 253 259 250 246 254 230 221 231 224 126 135 134 132 129 122 117 108 99
7 301 284 137 193 218 220 240 237 250 194 262 283 271 239 245 325 322 348 15 75 231 201 223 253 247 264 175 253 246 230 229 221 227 249 214 186 157 154 146 137 128 119 112 106
Height
795 794 792 791 791 790 788 787 786 786 785 784 784 784 783 782 781 781 779 776 777 779 784 786 787 786 785 779 777 772 769 778 776 775 780 771 778 775 774 782 782 787 785 794 808
795 793 792 790 789 789 788 787 786 785 785 784 783 783 782 781 781 776 774 773 776 779 783 784 784 784 778 775 772 768 770 769 758 762 770 771 773 778 781 785 790 792 793 803 809
795 792 791 790 789 788 787 786 785 785 784 784 783 782 782 780 778 766 769 773 776 780 783 783 783 778 775 771 772 767 770 761 760 758 760 769 773 771 778 788 782 791 796 802 807
795 792 790 789 787 786 786 786 785 783 783 783 783 783 781 782 781 770 771 773 777 782 783 782 780 776 771 773 766 769 758 760 757 760 762 771 766 776 774 778 773 782 792 800 804
795 792 789 788 786 785 785 784 784 783 782 782 782 782 782 776 769 771 773 776 779 781 779 777 774 771 775 768 765 768 762 756 755 760 761 763 772 773 776 774 777 784 792 797 801
794 792 789 787 786 784 783 783 783 782 781 781 782 781 781 775 773 773 776 778 779 779 777 776 771 770 770 768 769 764 762 760 758 764 765 770 772 774 773 774 780 786 791 794 797
793 791 788 786 784 783 781 781 782 782 781 781 781 781 778 772 773 774 777 778 779 778 775 774 773 771 766 768 761 761 769 763 762 763 769 763 782 780 769 774 781 786 789 792 796
793 790 787 785 783 782 781 780 780 781 781 781 781 782 769 772 773 774 776 778 779 779 778 775 772 768 767 761 762 766 762 775 767 763 766 768 784 766 765 773 779 782 786 791 794
792 789 786 784 782 781 780 779 779 780 781 781 782 779 767 771 773 773 775 774 777 778 777 776 771 767 762 769 774 762 782 781 778 760 766 771 778 764 761 768 774 778 783 788 792
790 787 784 782 781 780 780 780 780 780 780 782 782 781 770 765 768 771 774 774 773 773 775 773 771 770 761 767 798 781 777 777 779 767 765 772 773 764 762 763 769 772 778 784 787
790 786 782 780 779 779 780 781 781 779 777 760 760 763 761 765 768 770 772 772 769 770 778 772 779 779 770 765 766 767 771 775 765 761 774 768 764 759 758 760 763 767 773 778 781
788 784 781 778 777 777 778 773 770 773 766 760 763 764 764 764 766 766 770 773 774 780 769 778 781 764 761 762 765 765 771 773 769 768 771 764 767 752 752 757 755 760 767 771 776
786 783 779 776 776 776 776 773 773 773 766 760 757 757 758 763 759 760 764 762 770 775 772 777 768 760 766 763 767 762 769 768 775 768 765 767 756 752 750 749 751 752 757 763 769
785 781 777 775 778 776 773 773 773 773 773 762 760 753 756 754 762 751 756 758 765 771 764 768 753 766 767 768 763 766 759 761 766 779 785 769 788 755 745 755 752 751 754 758 764
782 778 776 775 776 773 772 772 772 772 794 755 756 751 746 755 747 757 752 755 765 766 769 767 765 768 773 764 758 770 757 761 770 784 778 769 786 754 751 758 753 747 747 751 757
779 775 773 774 775 772 771 772 772 782 792 760 748 755 758 751 750 751 755 752 748 761 761 759 750 759 756 755 755 757 762 761 763 763 788 775 777 757 754 752 743 740 742 747 752
776 771 770 772 768 770 772 771 779 784 750 758 753 749 749 755 753 752 760 765 770 786 779 761 759 747 750 763 754 760 763 783 788 784 781 760 771 754 750 743 740 739 739 743 749
771 767 766 768 769 770 771 768 790 756 752 740 743 745 755 746 751 753 759 765 752 757 765 777 782 752 741 756 760 754 759 778 810 789 773 758 771 766 745 733 731 731 735 741 747
767 768 768 766 766 769 765 776 762 753 745 748 748 755 755 748 752 754 758 757 749 752 776 773 775 739 745 741 749 753 774 744 766 761 778 754 755 750 742 745 736 734 736 742 747
768 765 764 765 767 769 764 768 754 747 744 744 756 743 755 752 759 755 756 741 748 740 741 754 781 746 749 744 748 752 741 770 762 799 798 763 763 773 764 762 750 748 749 750 748
767 755 764 764 769 762 764 752 748 742 745 750 749 747 743 745 745 749 748 743 739 739 737 742 759 760 748 752 750 759 762 754 747 758 775 778 775 763 769 762 758 755 754 751 750
763 753 765 766 764 753 754 746 756 744 742 743 744 743 742 739 745 743 747 738 738 737 753 739 745 766 754 736 739 740 741 741 763 777 759 763 772 761 764 762 759 762 762 759 756
756 755 765 764 760 757 747 749 749 747 745 744 745 739 738 741 753 740 737 735 738 740 742 739 752 769 765 751 745 749 740 733 734 740 765 771 770 760 764 767 765 767 767 766 765
762 756 757 757 751 748 748 751 752 743 746 743 743 739 741 744 740 744 742 741 739 737 754 745 737 748 757 748 729 749 745 741 739 753 752 755 770 769 769 770 771 772 773 773 774
763 758 761 758 753 749 749 746 750 752 744 743 744 743 739 748 743 745 733 741 741 754 743 739 754 742 739 739 739 736 735 742 749 740 756 743 749 764 767 769 772 775 778 781 783
769 767 760 756 759 755 763 754 751 746 749 745 751 739 735 744 735 739 732 734 737 741 740 733 753 748 750 740 742 745 736 733 738 742 744 746 760 755 761 767 773 779 783 787 790
781 778 772 769 753 754 746 747 748 749 744 744 746 746 745 738 740 737 732 731 731 735 739 740 742 755 757 744 748 760 739 741 737 743 741 758 742 759 767 771 775 779 783 788 791